Location: Haram ta Haram Freeway
(35.0583°N, 51.4202°E)
Time: 23:52:26
(UTC+04:30)

ISS - Pass Details

Date: 13 July 2022
Orbit: 412 x 420 km, 51.6° (Epoch: 17 August)

Event Time Altitude Azimuth Distance (km) Brightness Sun altitude
Rises 20:57:41 0° 210° (SSW) 2,326 0.0 -7.5°
Reaches altitude 10° 20:59:50 10° 202° (SSW) 1,469 -1.1 -7.9°
Maximum altitude 21:02:55 38° 133° (SE) 644 -3.3 -8.4°
Drops below altitude 10° 21:06:02 10° 63° (ENE) 1,481 -1.3 -8.9°
Sets 21:08:13 0° 55° (NE) 2,348 -0.2 -9.3°
